FW2996 Weather Reports


time (UTC)temp
C
wind
direction
speed
KPH
gust
KPH
rain 1hr
cm
rain 24hr
cm
rain mn
cm
humidity
%
barometer
mb
20260904095614 25 131 3.2 6.4 0.00 0.00 0.00 92 1054.9
20260904095109 25 123 4.8 6.4 0.00 0.00 0.00 92 1054.8
20260904094609 25 164 1.6 11.3 0.00 0.00 0.00 92 1054.7
20260904094103 25 191 8.0 11.3 0.00 0.00 0.00 92 1054.5
20260904093600 25 194 4.8 12.9 0.00 0.00 0.00 92 1054.5
20260904093055 25 192 3.2 9.7 0.00 0.00 0.00 92 1054.6
20260904092551 25 200 4.8 6.4 0.00 0.00 0.00 92 1054.5
20260904092047 25 176 3.2 9.7 0.00 0.00 0.00 91 1054.6
20260904091543 25 165 3.2 3.2 0.00 0.00 0.00 91 1054.6
20260904091042 25 151 1.6 4.8 0.00 0.00 0.00 91 1054.7
20260904090538 25 159 1.6 6.4 0.00 0.00 0.00 91 1054.7
20260904090033 25 152 1.6 6.4 0.00 0.00 0.00 91 1054.6
20260904085528 25 182 3.2 6.4 0.00 0.00 0.00 90 1054.8
20260904085027 25 175 3.2 6.4 0.00 0.00 0.00 90 1054.9
20260904084523 25 191 1.6 4.8 0.00 0.00 0.00 90 1054.7
20260904084020 25 135 3.2 4.8 0.00 0.00 0.00 90 1054.5
20260904083515 25 185 8.0 11.3 0.00 0.00 0.00 90 1054.4
20260904083011 25 173 4.8 12.9 0.00 0.00 0.00 90 1054.5
20260904082506 25 217 8.0 11.3 0.00 0.00 0.00 90 1054.5
20260904082007 25 178 4.8 9.7 0.00 0.00 0.00 90 1054.5
20260904081502 25 188 4.8 6.4 0.00 0.00 0.00 90 1054.6
20260904080957 25 175 6.4 9.7 0.00 0.00 0.00 90 1054.5
20260904080453 25 168 4.8 9.7 0.00 0.00 0.00 89 1054.5
20260904075948 25 188 6.4 11.3 0.00 0.00 0.00 89 1054.5
20260904075444 25 162 8.0 11.3 0.00 0.00 0.00 89 1054.6
20260904074943 25 135 3.2 9.7 0.00 0.00 0.00 89 1054.6
20260904074439 25 152 6.4 14.5 0.00 0.00 0.00 89 1054.7
20260904073934 25 164 8.0 11.3 0.00 0.00 0.00 89 1054.7
20260904073429 25 199 8.0 11.3 0.00 0.00 0.00 89 1054.9
20260904072925 25 154 3.2 12.9 0.00 0.00 0.00 89 1054.9
20260904072420 25 182 4.8 12.9 0.00 0.00 0.00 89 1054.8
20260904071915 25 159 1.6 6.4 0.00 0.00 0.00 89 1054.8
20260904071411 25 173 11.3 14.5 0.00 0.00 0.00 89 1054.9
20260904070905 25 197 6.4 16.1 0.00 0.00 0.00 88 1054.9
20260904070404 25 189 3.2 14.5 0.00 0.00 0.00 88 1055.0
20260904065904 25 151 3.2 14.5 0.00 0.00 0.00 88 1055.1
20260904065400 25 136 8.0 12.9 0.00 0.00 0.00 88 1054.9
20260904064900 26 187 4.8 9.7 0.00 0.00 0.00 88 1055.1
20260904064357 26 172 3.2 12.9 0.00 0.00 0.00 88 1055.0
20260904063852 26 180 9.7 20.9 0.00 0.00 0.00 88 1055.0
20260904063348 26 204 4.8 14.5 0.00 0.00 0.00 87 1055.0
20260904062843 25 174 8.0 14.5 0.00 0.00 0.00 87 1055.0
20260904062339 25 176 6.4 16.1 0.00 0.00 0.00 87 1055.2
20260904061835 25 141 4.8 14.5 0.00 0.00 0.00 87 1055.1
20260904061331 25 198 8.0 14.5 0.00 0.00 0.00 87 1055.2
20260904060827 25 153 3.2 16.1 0.00 0.00 0.00 86 1055.1
20260904060323 25 192 8.0 16.1 0.00 0.00 0.00 86 1055.2
20260904055818 25 171 6.4 11.3 0.00 0.00 0.00 85 1055.3
20260904055313 26 164 9.7 17.7 0.00 0.00 0.00 85 1055.0
20260904054808 25 155 8.0 20.9 0.00 0.00 0.00 85 1055.0
20260904054305 25 158 4.8 14.5 0.00 0.00 0.00 84 1055.2
20260904053759 26 165 8.0 17.7 0.00 0.00 0.00 84 1055.1
20260904053259 26 152 6.4 16.1 0.00 0.00 0.00 84 1055.0
20260904052755 26 166 6.4 11.3 0.00 0.00 0.00 84 1054.8
20260904052251 26 166 11.3 17.7 0.00 0.00 0.00 84 1054.9
20260904051748 26 123 6.4 12.9 0.00 0.00 0.00 83 1054.8
20260904051243 26 174 8.0 14.5 0.00 0.00 0.00 83 1054.8
20260904050738 26 107 3.2 12.9 0.00 0.00 0.00 83 1054.6
20260904050234 26 185 4.8 11.3 0.00 0.00 0.00 83 1054.8
20260904045729 26 172 4.8 14.5 0.00 0.00 0.00 83 1054.8
20260904045224 26 144 6.4 12.9 0.00 0.00 0.00 83 1054.8
20260904044724 26 155 4.8 6.4 0.00 0.00 0.00 82 1054.8
20260904044215 26 140 8.0 16.1 0.00 0.00 0.00 82 1054.9
20260904043711 26 191 9.7 12.9 0.00 0.00 0.00 82 1054.8
20260904043207 26 133 12.9 16.1 0.00 0.00 0.00 82 1054.9
20260904042703 26 148 8.0 12.9 0.00 0.00 0.00 81 1054.9
20260904042159 26 135 4.8 11.3 0.00 0.00 0.00 81 1054.8
20260904041653 26 154 11.3 14.5 0.00 0.00 0.00 80 1054.9
20260904041150 26 180 8.0 11.3 0.00 0.00 0.00 80 1054.7
20260904040645 26 187 9.7 14.5 0.00 0.00 0.00 80 1054.6
20260904040141 26 153 6.4 16.1 0.00 0.00 0.00 79 1054.8
20260904035637 26 171 8.0 12.9 0.00 0.00 0.00 79 1054.7
20260904035136 26 147 4.8 6.4 0.00 0.00 0.00 79 1054.7
20260904034635 26 179 6.4 12.9 0.00 0.00 0.00 79 1054.7
20260904034131 27 157 6.4 12.9 0.00 0.00 0.00 78 1054.8
20260904033627 27 116 8.0 24.1 0.00 0.00 0.00 77 1054.7
20260904033124 27 184 12.9 22.5 0.00 0.00 0.00 77 1054.4
20260904032619 27 170 12.9 16.1 0.00 0.00 0.00 76 1054.5
20260904032118 27 130 8.0 20.9 0.00 0.00 0.00 76 1054.6
20260904031618 27 139 6.4 17.7 0.00 0.00 0.00 76 1054.5
20260904031114 27 144 14.5 25.7 0.00 0.00 0.00 75 1054.5
20260904030610 27 149 16.1 22.5 0.00 0.00 0.00 75 1054.5
20260904030104 27 139 11.3 17.7 0.00 0.00 0.00 75 1054.4
20260904025600 27 134 6.4 14.5 0.00 0.00 0.00 76 1054.2
20260904025055 27 151 4.8 12.9 0.00 0.00 0.00 76 1054.2
20260904024551 27 130 8.0 17.7 0.00 0.00 0.00 76 1054.2
20260904024046 27 140 9.7 12.9 0.00 0.00 0.00 76 1054.2
20260904023542 27 145 8.0 14.5 0.00 0.00 0.00 76 1054.1
20260904023038 27 134 4.8 16.1 0.00 0.00 0.00 76 1053.8
20260904022532 27 137 4.8 12.9 0.00 0.00 0.00 76 1053.9
20260904022029 27 147 9.7 16.1 0.00 0.00 0.00 76 1053.9
20260904021520 27 135 6.4 11.3 0.00 0.00 0.00 76 1053.9
20260904021014 27 114 8.0 14.5 0.00 0.00 0.00 75 1053.8
20260904020509 27 128 9.7 12.9 0.00 0.00 0.00 75 1053.8
20260904020008 27 135 9.7 11.3 0.00 0.00 0.00 74 1053.5
20260904015503 27 144 6.4 16.1 0.00 0.00 0.00 74 1053.5
20260904015001 27 115 9.7 17.7 0.00 0.00 0.00 74 1053.5
20260904014456 28 138 4.8 16.1 0.00 0.00 0.00 73 1053.4
20260904013952 28 134 8.0 16.1 0.00 0.00 0.00 73 1053.4
20260904013448 28 166 11.3 11.3 0.00 0.00 0.00 72 1053.3
20260904012945 28 182 9.7 16.1 0.00 0.00 0.00 72 1053.4
20260904012444 28 174 3.2 16.1 0.00 0.00 0.00 71 1053.3
20260904011939 28 119 12.9 20.9 0.00 0.00 0.00 71 1053.3
20260904011433 28 121 11.3 24.1 0.00 0.00 0.00 70 1053.1
20260904010929 28 177 11.3 14.5 0.00 0.00 0.00 69 1053.2
20260904010425 28 183 11.3 17.7 0.00 0.00 0.00 68 1053.0
20260904005919 29 156 16.1 22.5 0.00 0.00 0.00 68 1053.0
20260904005416 29 133 9.7 24.1 0.00 0.00 0.00 67 1053.1
20260904004915 29 116 14.5 20.9 0.00 0.00 0.00 67 1053.1
20260904004413 29 123 9.7 16.1 0.00 0.00 0.00 67 1053.2
20260904003912 29 129 14.5 17.7 0.00 0.00 0.00 67 1053.1
20260904003408 30 117 12.9 20.9 0.00 0.00 0.00 66 1053.3
20260904002903 30 127 11.3 20.9 0.00 0.00 0.00 66 1053.0
20260904002400 30 137 14.5 22.5 0.00 0.00 0.00 65 1053.0
20260904001858 30 115 9.7 24.1 0.00 0.00 0.00 65 1053.2
20260904001354 30 124 12.9 16.1 0.00 0.00 0.00 66 1053.1
20260904000849 30 118 12.9 16.1 0.00 0.00 0.00 66 1053.0
20260904000348 30 131 11.3 25.7 0.00 0.00 0.00 66 1053.1
20260903235848 30 154 6.4 16.1 0.00 0.00 0.00 65 1053.0
20260903235344 30 132 19.3 29.0 0.00 0.00 0.00 64 1053.0
20260903234843 31 143 17.7 20.9 0.00 0.00 0.00 65 1052.8
20260903234340 31 117 16.1 24.1 0.00 0.00 0.00 64 1052.7
20260903233836 31 106 9.7 25.7 0.00 0.00 0.00 65 1052.7
20260903233332 31 104 24.1 33.8 0.00 0.00 0.00 65 1052.6
20260903232831 31 118 22.5 30.6 0.00 0.00 0.00 62 1052.6
20260903232327 31 130 20.9 27.4 0.00 0.00 0.00 60 1052.8
20260903231826 32 127 17.7 35.4 0.00 0.00 0.00 59 1052.4
20260903231321 33 119 19.3 35.4 0.00 0.00 0.00 54 1052.4
20260903230817 33 143 11.3 24.1 0.00 0.00 0.00 52 1052.3
20260903230312 33 121 20.9 35.4 0.00 0.00 0.00 51 1052.3
20260903225808 33 147 22.5 25.7 0.00 0.00 0.00 51 1052.4
20260903225306 33 134 12.9 25.7 0.00 0.00 0.00 52 1052.2
20260903224800 33 178 16.1 29.0 0.00 0.00 0.00 52 1052.2
20260903224256 33 141 12.9 29.0 0.00 0.00 0.00 52 1052.0
20260903223751 33 112 24.1 30.6 0.00 0.00 0.00 52 1052.1
20260903223249 34 138 20.9 35.4 0.00 0.00 0.00 51 1052.0
20260903222745 36 126 14.5 33.8 0.00 0.00 0.00 47 1051.9
20260903222243 36 185 8.0 17.7 0.00 0.00 0.00 47 1051.9
20260903221739 36 133 12.9 22.5 0.00 0.00 0.00 46 1051.7
20260903221237 35 132 12.9 25.7 0.00 0.00 0.00 47 1051.9
20260903220736 36 147 11.3 14.5 0.00 0.00 0.00 45 1051.7
20260903220231 35 165 4.8 12.9 0.00 0.00 0.00 46 1051.8
20260903215724 35 157 16.1 24.1 0.00 0.00 0.00 46 1052.0
20260903215220 35 119 4.8 11.3 0.00 0.00 0.00 45 1051.9
20260903214717 35 115 9.7 17.7 0.00 0.00 0.00 46 1052.0
20260903214214 35 121 3.2 17.7 0.00 0.00 0.00 46 1052.1
20260903213708 35 115 4.8 16.1 0.00 0.00 0.00 45 1052.1
20260903213204 36 148 16.1 20.9 0.00 0.00 0.00 45 1052.1
20260903212700 36 131 8.0 16.1 0.00 0.00 0.00 45 1052.2
20260903212156 35 154 11.3 17.7 0.00 0.00 0.00 47 1052.3
20260903211655 35 140 9.7 16.1 0.00 0.00 0.00 46 1052.1
20260903211152 35 115 6.4 11.3 0.00 0.00 0.00 47 1052.4
20260903210648 35 132 14.5 24.1 0.00 0.00 0.00 48 1052.1
20260903210143 35 137 4.8 11.3 0.00 0.00 0.00 48 1052.3
20260903205643 36 141 20.9 25.7 0.00 0.00 0.00 46 1052.3
20260903205142 36 124 6.4 14.5 0.00 0.00 0.00 45 1052.3
20260903204638 36 153 1.6 12.9 0.00 0.00 0.00 44 1052.2
20260903204134 35 137 6.4 9.7 0.00 0.00 0.00 46 1052.6
20260903203630 35 197 3.2 9.7 0.00 0.00 0.00 46 1052.7
20260903203130 36 125 9.7 12.9 0.00 0.00 0.00 46 1052.9
20260903202624 35 192 4.8 6.4 0.00 0.00 0.00 47 1052.7
20260903202120 35 129 9.7 16.1 0.00 0.00 0.00 48 1052.9
20260903201614 36 176 9.7 14.5 0.00 0.00 0.00 47 1052.9
20260903201114 36 105 4.8 11.3 0.00 0.00 0.00 46 1052.9
20260903200609 36 179 8.0 11.3 0.00 0.00 0.00 47 1052.9
20260903200104 37 155 12.9 22.5 0.00 0.00 0.00 46 1053.0
20260903195600 36 246 8.0 14.5 0.00 0.00 0.00 45 1052.9
20260903195056 36 162 11.3 22.5 0.00 0.00 0.00 49 1053.1
20260903194551 36 66 3.2 11.3 0.00 0.00 0.00 46 1052.9
20260903194045 35 145 1.6 6.4 0.00 0.00 0.00 47 1053.1
20260903193542 36 103 4.8 6.4 0.00 0.00 0.00 46 1053.0
20260903193032 36 116 14.5 20.9 0.00 0.00 0.00 48 1053.4
20260903192528 35 137 3.2 4.8 0.00 0.00 0.00 47 1053.3
20260903192022 36 122 12.9 20.9 0.00 0.00 0.00 46 1053.3
20260903191519 36 208 6.4 11.3 0.00 0.00 0.00 45 1053.7
20260903191019 36 227 3.2 3.2 0.00 0.00 0.00 43 1053.5
20260903190513 36 236 9.7 14.5 0.00 0.00 0.00 44 1053.9
20260903190013 36 252 6.4 11.3 0.00 0.00 0.00 44 1053.8
20260903185509 36 86 6.4 9.7 0.00 0.00 0.00 44 1053.9
20260903185009 36 216 8.0 12.9 0.00 0.00 0.00 44 1054.1
20260903184500 36 255 3.2 12.9 0.00 0.00 0.00 44 1054.3
20260903183959 36 250 8.0 14.5 0.00 0.00 0.00 43 1054.3
20260903183453 36 112 6.4 11.3 0.00 0.00 0.00 46 1054.2
20260903182953 35 164 9.7 16.1 0.00 0.00 0.00 44 1054.3
20260903182452 35 168 6.4 14.5 0.00 0.00 0.00 46 1054.5
20260903181948 35 186 6.4 14.5 0.00 0.00 0.00 47 1054.7
20260903181441 36 156 9.7 12.9 0.00 0.00 0.00 46 1054.5
20260903180936 35 141 4.8 11.3 0.00 0.00 0.00 48 1054.7
20260903180431 35 192 11.3 20.9 0.00 0.00 0.00 47 1054.8
20260903175931 34 133 1.6 16.1 0.00 0.00 0.00 50 1054.7
20260903175425 35 234 8.0 17.7 0.00 0.00 0.00 45 1054.7
20260903174919 34 148 6.4 12.9 0.00 0.00 0.00 46 1054.7
20260903174415 35 258 6.4 11.3 0.00 0.00 0.00 45 1055.0
20260903173914 35 216 4.8 9.7 0.00 0.00 0.00 48 1055.0
20260903173409 35 170 14.5 17.7 0.00 0.00 0.00 50 1055.0
20260903172905 34 182 1.6 11.3 0.00 0.00 0.00 49 1055.0
20260903172405 33 216 9.7 16.1 0.00 0.00 0.00 50 1055.1
20260903171900 33 217 8.0 22.5 0.00 0.00 0.00 52 1055.2
20260903171355 33 236 6.4 16.1 0.00 0.00 0.00 53 1055.2
20260903170855 33 169 4.8 17.7 0.00 0.00 0.00 52 1055.4
20260903170350 33 162 6.4 12.9 0.00 0.00 0.00 54 1055.5
20260903165848 33 157 6.4 12.9 0.00 0.00 0.00 54 1055.4
20260903165343 33 183 11.3 16.1 0.00 0.00 0.00 56 1055.4
20260903164837 33 188 3.2 6.4 0.00 0.00 0.00 56 1055.4
20260903164333 32 195 6.4 20.9 0.00 0.00 0.00 57 1055.4
20260903163832 33 263 8.0 14.5 0.00 0.00 0.00 56 1055.5
20260903163329 32 164 8.0 16.1 0.00 0.00 0.00 57 1055.5
20260903162825 32 195 8.0 14.5 0.00 0.00 0.00 58 1055.7
20260903162321 32 160 6.4 20.9 0.00 0.00 0.00 56 1055.7
20260903161817 32 243 14.5 24.1 0.00 0.00 0.00 58 1055.5
20260903161312 33 238 14.5 22.5 0.00 0.00 0.00 56 1055.5
20260903160807 32 162 1.6 9.7 0.00 0.00 0.00 60 1055.5
20260903160301 31 196 6.4 14.5 0.00 0.00 0.00 61 1055.5
20260903155758 31 201 11.3 14.5 0.00 0.00 0.00 62 1055.6
20260903155254 31 202 4.8 12.9 0.00 0.00 0.00 62 1055.5
20260903154749 31 165 3.2 20.9 0.00 0.00 0.00 64 1055.5
20260903154245 31 246 3.2 11.3 0.00 0.00 0.00 65 1055.6
20260903153741 31 203 9.7 12.9 0.00 0.00 0.00 66 1055.6
20260903153236 30 208 12.9 16.1 0.00 0.00 0.00 67 1055.6
20260903152732 30 273 9.7 16.1 0.00 0.00 0.00 69 1055.6
20260903152228 30 215 6.4 20.9 0.00 0.00 0.00 69 1055.5
20260903151728 30 262 11.3 17.7 0.00 0.00 0.00 68 1055.5
20260903151224 30 252 4.8 25.7 0.00 0.00 0.00 70 1055.6
20260903150718 30 210 4.8 16.1 0.00 0.00 0.00 69 1055.6
20260903150213 30 119 4.8 6.4 0.00 0.00 0.00 71 1055.4
20260903145708 29 213 3.2 27.4 0.00 0.00 0.00 72 1055.3
20260903145203 28 275 8.0 12.9 0.00 0.00 0.00 75 1055.4
20260903144702 29 228 11.3 17.7 0.00 0.00 0.00 74 1055.7
20260903144158 28 233 8.0 9.7 0.00 0.00 0.00 75 1055.5
20260903143654 28 242 11.3 12.9 0.00 0.00 0.00 76 1055.6
20260903143149 28 157 4.8 17.7 0.00 0.00 0.00 77 1055.4
20260903142645 28 200 4.8 12.9 0.00 0.00 0.00 77 1055.6
20260903142142 28 281 3.2 14.5 0.00 0.00 0.00 79 1055.6
20260903141642 27 238 6.4 14.5 0.00 0.00 0.00 80 1055.6
20260903141136 27 244 9.7 20.9 0.00 0.00 0.00 82 1055.6
20260903140633 27 170 6.4 16.1 0.00 0.00 0.00 82 1055.5
20260903140128 27 195 4.8 14.5 0.00 0.00 0.00 82 1055.6
20260903135624 27 233 9.7 16.1 0.00 0.00 0.00 82 1055.4
20260903135124 27 203 9.7 17.7 0.00 0.00 0.00 83 1055.6
20260903134623 27 226 9.7 14.5 0.00 0.00 0.00 83 1055.4
20260903134119 27 221 4.8 17.7 0.00 0.00 0.00 84 1055.6
20260903133616 27 239 14.5 22.5 0.00 0.00 0.00 84 1055.8
20260903133112 27 189 6.4 20.9 0.00 0.00 0.00 84 1055.7
20260903132607 27 192 12.9 24.1 0.00 0.00 0.00 84 1055.5
20260903132107 27 192 1.6 12.9 0.00 0.00 0.00 85 1055.6
20260903131602 26 116 1.6 9.7 0.00 0.00 0.00 86 1055.6
20260903131055 26 219 1.6 11.3 0.00 0.00 0.00 87 1055.5
20260903130550 26 198 9.7 11.3 0.00 0.00 0.00 87 1055.6
20260903130045 26 182 4.8 11.3 0.00 0.00 0.00 87 1055.5
20260903125543 26 201 6.4 16.1 0.00 0.00 0.00 88 1055.4
20260903125038 26 231 3.2 17.7 0.00 0.00 0.00 88 1055.2
20260903124532 26 231 4.8 12.9 0.00 0.00 0.00 88 1055.4
20260903124027 26 193 6.4 12.9 0.00 0.00 0.00 89 1055.2
20260903123526 26 184 6.4 9.7 0.00 0.00 0.00 89 1055.3
20260903123026 26 177 6.4 11.3 0.00 0.00 0.00 89 1055.3
20260903122525 26 225 6.4 11.3 0.00 0.00 0.00 89 1055.2
20260903122024 26 199 9.7 14.5 0.00 0.00 0.00 89 1055.2
20260903121519 26 212 8.0 17.7 0.00 0.00 0.00 89 1055.3
20260903121015 26 205 4.8 6.4 0.00 0.00 0.00 89 1055.1
20260903120514 26 190 12.9 16.1 0.00 0.00 0.00 89 1055.1
20260903120009 26 187 6.4 14.5 0.00 0.00 0.00 89 1055.1
20260903115508 26 189 3.2 11.3 0.00 0.00 0.00 89 1055.0
20260903115008 26 188 12.9 17.7 0.00 0.00 0.00 89 1054.7
20260903114503 26 196 6.4 12.9 0.00 0.00 0.00 89 1055.0
20260903113958 26 186 6.4 11.3 0.00 0.00 0.00 89 1055.1
20260903113454 26 218 6.4 16.1 0.00 0.00 0.00 89 1054.9
20260903112950 26 217 6.4 12.9 0.00 0.00 0.00 89 1054.8
20260903112446 26 194 4.8 6.4 0.00 0.00 0.00 89 1054.9
20260903111945 26 203 3.2 6.4 0.00 0.00 0.00 90 1054.7
20260903111445 26 182 6.4 14.5 0.00 0.00 0.00 90 1054.9
20260903110941 26 222 4.8 17.7 0.00 0.00 0.00 90 1054.8
20260903110437 26 221 6.4 12.9 0.00 0.00 0.00 90 1054.8
20260903105931 25 182 9.7 14.5 0.00 0.00 0.00 90 1054.8
20260903105427 25 212 6.4 12.9 0.00 0.00 0.00 91 1054.8
20260903104926 25 195 3.2 11.3 0.00 0.00 0.00 91 1054.6
20260903104425 25 209 4.8 16.1 0.00 0.00 0.00 91 1054.7
20260903103923 25 193 4.8 6.4 0.00 0.00 0.00 92 1054.7
20260903103418 25 199 6.4 12.9 0.00 0.00 0.00 92 1054.8
20260903102913 25 172 6.4 12.9 0.00 0.00 0.00 92 1054.6
20260903102408 25 192 3.2 12.9 0.00 0.00 0.00 92 1054.9
20260903101908 25 182 6.4 11.3 0.00 0.00 0.00 92 1054.7
20260903101403 25 197 6.4 14.5 0.00 0.00 0.00 92 1054.9
20260903100858 25 161 3.2 12.9 0.00 0.00 0.00 92 1054.7
20260903100353 25 209 4.8 14.5 0.00 0.00 0.00 92 1054.9
20260903095844 25 200 4.8 9.7 0.00 0.00 0.00 92 1054.7